FW0844 Weather Reports


time (UTC)temp
C
wind
direction
speed
KPH
gust
KPH
rain 1hr
cm
rain 24hr
cm
rain mn
cm
humidity
%
barometer
mb
20260906213047 20 128 1.6 4.8 0.00 0.00 0.00 65 1018.0
20260906212515 20 133 1.6 6.4 0.00 0.00 0.00 67 1018.1
20260906212108 20 100 3.2 6.4 0.00 0.00 0.00 65 1018.1
20260906211552 20 137 3.2 6.4 0.00 0.00 0.00 64 1018.1
20260906211016 20 136 1.6 6.4 0.00 0.00 0.00 64 1018.1
20260906210613 20 143 1.6 4.8 0.00 0.00 0.00 66 1018.1
20260906210054 20 144 1.6 8.0 0.00 0.00 0.00 64 1018.2
20260906205530 20 143 1.6 8.0 0.00 0.00 0.00 65 1018.0
20260906205113 20 126 3.2 6.4 0.00 0.00 0.00 65 1018.0
20260906204555 20 156 3.2 8.0 0.00 0.00 0.00 67 1017.9
20260906204023 20 102 1.6 11.3 0.00 0.00 0.00 66 1017.9
20260906203504 20 80 3.2 11.3 0.00 0.00 0.00 65 1017.9
20260906203058 21 145 3.2 8.0 0.00 0.00 0.00 63 1018.0
20260906202537 21 109 1.6 6.4 0.00 0.00 0.00 64 1017.9
20260906202007 21 147 3.2 9.7 0.00 0.00 0.00 66 1017.7
20260906201605 21 89 3.2 9.7 0.00 0.00 0.00 67 1017.7
20260906201042 21 126 3.2 8.0 0.00 0.00 0.00 68 1017.7
20260906200510 20 126 1.6 8.0 0.00 0.00 0.00 70 1017.7
20260906200111 20 125 3.2 9.7 0.00 0.00 0.00 67 1017.7
20260906195543 20 124 3.2 9.7 0.00 0.00 0.00 69 1017.8
20260906195012 20 133 1.6 8.0 0.00 0.00 0.00 65 1017.7
20260906194605 21 132 3.2 8.0 0.00 0.00 0.00 66 1017.8
20260906194046 21 82 3.2 12.9 0.00 0.00 0.00 66 1017.7
20260906193526 21 109 3.2 12.9 0.00 0.00 0.00 67 1017.7
20260906193111 21 132 1.6 6.4 0.00 0.00 0.00 67 1017.7
20260906192651 21 145 1.6 6.4 0.00 0.00 0.00 65 1017.7
20260906123531 16 71 1.6 11.3 0.00 0.00 0.00 96 1016.8
20260906122541 16 64 0.0 4.8 0.00 0.00 0.00 97 1016.8
20260906122011 16 64 1.6 6.4 0.00 0.00 0.00 97 1016.9
20260906121605 16 77 0.0 3.2 0.00 0.00 0.00 97 1016.8
20260906121044 16 77 0.0 3.2 0.00 0.00 0.00 97 1016.8
20260906120524 15 77 0.0 0.0 0.00 0.00 0.00 97 1016.8
20260906120107 15 77 0.0 0.0 0.00 0.00 0.00 97 1016.7
20260906115546 15 77 0.0 0.0 0.00 0.00 0.00 97 1016.6
20260906115017 14 77 0.0 0.0 0.00 0.00 0.00 97 1016.5
20260906114611 14 77 0.0 0.0 0.00 0.00 0.00 96 1016.5
20260906114051 14 76 0.0 0.0 0.00 0.00 0.00 96 1016.5
20260906113533 13 77 0.0 0.0 0.00 0.00 0.00 96 1016.4
20260906113003 13 77 0.0 0.0 0.00 0.00 0.00 96 1016.4
20260906112552 13 360 0.0 0.0 0.00 0.00 0.00 96 1016.4
20260906112033 13 360 0.0 0.0 0.00 0.00 0.00 96 1016.4
20260906111503 13 360 0.0 0.0 0.00 0.00 0.00 96 1016.2
20260906111055 13 360 0.0 0.0 0.00 0.00 0.00 96 1016.1
20260906110539 13 360 0.0 0.0 0.00 0.00 0.00 96 1016.2
20260906110007 13 82 0.0 0.0 0.00 0.00 0.00 95 1016.1
20260906105601 13 80 0.0 0.0 0.00 0.00 0.00 95 1016.1
20260906105039 13 81 0.0 0.0 0.00 0.00 0.00 96 1016.0
20260906104511 13 82 0.0 0.0 0.00 0.00 0.00 96 1015.9
20260906104102 13 80 0.0 0.0 0.00 0.00 0.00 96 1016.0
20260906103547 13 360 0.0 0.0 0.00 0.00 0.00 96 1015.9
20260906103013 13 80 0.0 0.0 0.00 0.00 0.00 96 1015.7
20260906102605 13 80 0.0 0.0 0.00 0.00 0.00 96 1015.7
20260906102046 13 360 0.0 0.0 0.00 0.00 0.00 96 1015.6
20260906101531 13 360 0.0 0.0 0.00 0.00 0.00 95 1015.7
20260906101109 14 360 0.0 0.0 0.00 0.00 0.00 95 1015.7
20260906100549 14 360 0.0 0.0 0.00 0.00 0.00 95 1015.7
20260906100018 14 360 0.0 0.0 0.00 0.00 0.00 95 1015.7
20260906095611 14 360 0.0 0.0 0.00 0.00 0.00 95 1015.6
20260906095052 14 360 0.0 0.0 0.00 0.00 0.00 95 1015.5
20260906094521 14 360 0.0 0.0 0.00 0.00 0.00 95 1015.4
20260906094001 14 360 0.0 0.0 0.00 0.00 0.00 95 1015.3
20260906093554 14 360 0.0 0.0 0.00 0.00 0.00 95 1015.3
20260906093034 14 360 0.0 0.0 0.00 0.00 0.00 95 1015.2
20260906092508 14 360 0.0 0.0 0.00 0.00 0.00 95 1015.2
20260906092056 14 360 0.0 0.0 0.00 0.00 0.00 95 1015.2
20260906091537 14 360 0.0 0.0 0.00 0.00 0.00 95 1015.2
20260906091007 14 360 0.0 0.0 0.00 0.00 0.00 95 1015.1
20260906090559 14 360 0.0 0.0 0.00 0.00 0.00 95 1015.1
20260906090040 14 360 0.0 0.0 0.00 0.00 0.00 95 1015.1
20260906085512 14 360 0.0 0.0 0.00 0.00 0.00 95 1015.0
20260906085104 14 360 0.0 0.0 0.00 0.00 0.00 95 1014.9
20260906084545 14 81 0.0 0.0 0.00 0.00 0.00 95 1014.8
20260906084020 14 81 0.0 0.0 0.00 0.00 0.00 95 1014.7
20260906083610 14 360 0.0 0.0 0.00 0.00 0.00 95 1014.6
20260906083050 14 82 0.0 0.0 0.00 0.00 0.00 95 1014.5
20260906082534 15 360 0.0 0.0 0.00 0.00 0.00 95 1014.5
20260906082002 15 360 0.0 0.0 0.00 0.00 0.00 95 1014.4
20260906081553 15 360 0.0 0.0 0.00 0.00 0.00 95 1014.5
20260906081034 15 360 0.0 0.0 0.00 0.00 0.00 95 1014.5
20260906080503 15 360 0.0 0.0 0.00 0.00 0.00 95 1014.4
20260906080055 15 360 0.0 0.0 0.00 0.00 0.00 95 1014.5
20260906075536 15 360 0.0 0.0 0.00 0.00 0.00 95 1014.5
20260906075005 15 360 0.0 0.0 0.00 0.00 0.00 95 1014.5
20260906074601 15 360 0.0 0.0 0.00 0.00 0.00 95 1014.5
20260906074038 15 360 0.0 0.0 0.00 0.00 0.00 95 1014.5
20260906073510 15 360 0.0 0.0 0.00 0.00 0.00 95 1014.5
20260906073059 15 360 0.0 0.0 0.00 0.00 0.00 95 1014.5
20260906072540 15 360 0.0 0.0 0.00 0.00 0.00 95 1014.5
20260906072011 15 360 0.0 0.0 0.00 0.00 0.00 95 1014.5
20260906071606 15 360 0.0 0.0 0.00 0.00 0.00 95 1014.4
20260906071045 15 360 0.0 0.0 0.00 0.00 0.00 95 1014.4
20260906070524 15 360 0.0 0.0 0.00 0.00 0.00 95 1014.5
20260906070115 15 82 0.0 0.0 0.00 0.00 0.00 95 1014.4
20260906065548 15 360 0.0 0.0 0.00 0.00 0.00 95 1014.4
20260906065018 15 82 0.0 0.0 0.00 0.00 0.00 95 1014.4
20260906064611 15 360 0.0 0.0 0.00 0.00 0.00 95 1014.4
20260906064052 15 360 0.0 0.0 0.00 0.00 0.00 95 1014.4
20260906063533 15 360 0.0 0.0 0.00 0.00 0.00 95 1014.5
20260906063003 15 360 0.0 0.0 0.00 0.00 0.00 95 1014.5
20260906062552 15 360 0.0 0.0 0.00 0.00 0.00 95 1014.6
20260906062033 15 360 0.0 0.0 0.00 0.00 0.00 95 1014.5
20260906061503 15 360 0.0 0.0 0.00 0.00 0.00 95 1014.6
20260906061056 15 360 0.0 0.0 0.00 0.00 0.00 95 1014.5
20260906060537 15 360 0.0 0.0 0.00 0.00 0.00 95 1014.6
20260906060009 15 360 0.0 0.0 0.00 0.00 0.00 95 1014.6
20260906055601 15 360 0.0 0.0 0.00 0.00 0.00 95 1014.7
20260906055039 15 360 0.0 0.0 0.00 0.00 0.00 95 1014.6
20260906054512 15 360 0.0 0.0 0.00 0.00 0.00 95 1014.7
20260906054102 15 360 0.0 0.0 0.00 0.00 0.00 95 1014.6
20260906053542 15 360 0.0 0.0 0.00 0.00 0.00 95 1014.7
20260906053013 15 360 0.0 0.0 0.00 0.00 0.00 95 1014.7
20260906052606 15 360 0.0 0.0 0.00 0.00 0.00 95 1014.7
20260906052046 14 360 0.0 0.0 0.00 0.00 0.00 95 1014.7
20260906051532 14 360 0.0 0.0 0.00 0.00 0.00 95 1014.7
20260906051108 14 360 0.0 0.0 0.00 0.00 0.00 94 1014.7
20260906050546 14 360 0.0 0.0 0.00 0.00 0.00 94 1014.7
20260906050027 14 360 0.0 0.0 0.00 0.00 0.00 94 1014.6
20260906045605 14 360 0.0 0.0 0.00 0.00 0.00 94 1014.7
20260906045045 14 360 0.0 0.0 0.00 0.00 0.00 94 1014.5
20260906044526 14 360 0.0 0.0 0.00 0.00 0.00 94 1014.6
20260906044110 14 360 0.0 0.0 0.00 0.00 0.00 94 1014.6
20260906043548 14 360 0.0 0.0 0.00 0.00 0.00 94 1014.6
20260906043030 14 360 0.0 0.0 0.00 0.00 0.00 93 1014.5
20260906042509 15 360 0.0 0.0 0.00 0.00 0.00 93 1014.5
20260906042052 15 360 0.0 0.0 0.00 0.00 0.00 93 1014.5
20260906041532 15 360 0.0 0.0 0.00 0.00 0.00 93 1014.6
20260906041113 15 360 0.0 0.0 0.00 0.00 0.00 93 1014.5
20260906040553 15 360 0.0 0.0 0.00 0.00 0.00 93 1014.5
20260906040038 15 360 0.0 0.0 0.00 0.00 0.00 93 1014.4
20260906035512 15 360 0.0 0.0 0.00 0.00 0.00 93 1014.4
20260906035054 15 360 0.0 0.0 0.00 0.00 0.00 93 1014.4
20260906034542 15 360 0.0 0.0 0.00 0.00 0.00 93 1014.3
20260906034014 15 360 0.0 0.0 0.00 0.00 0.00 93 1014.3
20260906033555 15 360 0.0 0.0 0.00 0.00 0.00 93 1014.3
20260906033039 15 360 0.0 0.0 0.00 0.00 0.00 93 1014.2
20260906032504 15 360 0.0 0.0 0.00 0.00 0.00 93 1014.2
20260906032056 15 360 0.0 0.0 0.00 0.00 0.00 93 1014.1
20260906031536 15 360 0.0 0.0 0.00 0.00 0.00 93 1014.1
20260906031019 15 360 0.0 0.0 0.00 0.00 0.00 93 1014.2
20260906030600 15 360 0.0 0.0 0.00 0.00 0.00 93 1014.2
20260906030041 15 360 0.0 0.0 0.00 0.00 0.00 93 1014.0
20260906025521 15 360 0.0 0.0 0.00 0.00 0.00 93 1014.2
20260906025105 15 360 0.0 0.0 0.00 0.00 0.00 93 1014.1
20260906024545 15 360 0.0 0.0 0.00 0.00 0.00 93 1014.0
20260906024030 15 360 0.0 0.0 0.00 0.00 0.00 93 1014.1
20260906023609 15 360 0.0 0.0 0.00 0.00 0.00 93 1014.0
20260906023050 15 360 0.0 0.0 0.00 0.00 0.00 93 1014.0
20260906022530 15 360 0.0 0.0 0.00 0.00 0.00 93 1013.9
20260906022112 15 360 0.0 0.0 0.00 0.00 0.00 93 1013.9
20260906021554 15 360 0.0 0.0 0.00 0.00 0.00 93 1013.9
20260906021036 15 360 0.0 0.0 0.00 0.00 0.00 93 1013.8
20260906020513 15 360 0.0 0.0 0.00 0.00 0.00 92 1013.8
20260906020057 15 360 0.0 0.0 0.00 0.00 0.00 92 1013.9
20260906015533 15 360 0.0 0.0 0.00 0.00 0.00 92 1013.9
20260906015004 15 360 0.0 0.0 0.00 0.00 0.00 92 1013.9
20260906014607 15 360 0.0 0.0 0.00 0.00 0.00 92 1013.9
20260906014036 15 360 0.0 0.0 0.00 0.00 0.00 91 1013.8
20260906013513 15 79 0.0 0.0 0.00 0.00 0.00 91 1013.7
20260906013057 15 78 0.0 0.0 0.00 0.00 0.00 91 1013.6
20260906012538 15 77 0.0 0.0 0.00 0.00 0.00 91 1013.6
20260906012009 16 77 0.0 0.0 0.00 0.00 0.00 91 1013.6
20260906011600 16 77 0.0 0.0 0.00 0.00 0.00 90 1013.6
20260906011040 16 77 0.0 0.0 0.00 0.00 0.00 90 1013.6
20260906010526 16 77 0.0 0.0 0.00 0.00 0.00 90 1013.5
20260906005542 16 77 0.0 0.0 0.00 0.00 0.00 90 1013.4
20260906005022 16 77 0.0 0.0 0.00 0.00 0.00 89 1013.5
20260906004605 16 77 0.0 0.0 0.00 0.00 0.00 89 1013.5
20260906004045 16 77 0.0 0.0 0.00 0.00 0.00 88 1013.5
20260906003526 16 77 0.0 0.0 0.00 0.00 0.00 88 1013.4
20260906003106 16 77 0.0 0.0 0.00 0.00 0.00 88 1013.4
20260906002546 17 77 0.0 0.0 0.00 0.00 0.00 87 1013.5
20260906002027 17 77 0.0 0.0 0.00 0.00 0.00 87 1013.5
20260906001609 17 77 0.0 0.0 0.00 0.00 0.00 86 1013.5
20260906001049 17 77 0.0 0.0 0.00 0.00 0.00 85 1013.4
20260906000529 17 77 0.0 0.0 0.00 0.00 0.00 85 1013.5
20260906000114 17 77 0.0 0.0 0.00 0.00 0.00 83 1013.5
20260905235556 18 77 0.0 0.0 0.00 0.00 0.00 83 1013.4
20260905235035 18 77 0.0 0.0 0.00 0.00 0.00 82 1013.4
20260905234514 18 76 0.0 0.0 0.00 0.00 0.00 81 1013.4
20260905234100 18 76 0.0 0.0 0.00 0.00 0.00 80 1013.3
20260905233537 18 76 0.0 3.2 0.00 0.00 0.00 78 1013.4
20260905233013 19 76 0.0 3.2 0.00 0.00 0.00 77 1013.4
20260905232559 19 76 1.6 3.2 0.00 0.00 0.00 77 1013.3
20260905232041 19 76 1.6 3.2 0.00 0.00 0.00 75 1013.3
20260905231520 20 76 1.6 4.8 0.00 0.00 0.00 74 1013.4
20260905231104 20 76 1.6 4.8 0.00 0.00 0.00 73 1013.3
20260905230542 20 76 1.6 4.8 0.00 0.00 0.00 72 1013.2
20260905230023 20 76 1.6 4.8 0.00 0.00 0.00 70 1013.2
20260905225606 20 76 1.6 4.8 0.00 0.00 0.00 70 1013.3
20260905225046 20 77 1.6 4.8 0.00 0.00 0.00 69 1013.3
20260905224527 21 77 1.6 4.8 0.00 0.00 0.00 68 1013.3
20260905224110 21 77 1.6 4.8 0.00 0.00 0.00 69 1013.3
20260905223548 21 77 1.6 6.4 0.00 0.00 0.00 68 1013.3
20260905223028 21 77 1.6 6.4 0.00 0.00 0.00 67 1013.4
20260905222612 21 74 1.6 4.8 0.00 0.00 0.00 67 1013.3
20260905222051 21 74 0.0 4.8 0.00 0.00 0.00 67 1013.2
20260905221533 21 74 1.6 4.8 0.00 0.00 0.00 65 1013.1
20260905221112 21 74 1.6 6.4 0.00 0.00 0.00 65 1013.1
20260905220551 22 74 1.6 6.4 0.00 0.00 0.00 65 1013.1
20260905220030 22 76 3.2 6.4 0.00 0.00 0.00 65 1013.1
20260905215512 22 81 1.6 8.0 0.00 0.00 0.00 64 1013.1
20260905215057 22 63 1.6 8.0 0.00 0.00 0.00 65 1013.0
20260905214536 22 121 1.6 6.4 0.00 0.00 0.00 65 1012.9
20260905214004 22 92 1.6 6.4 0.00 0.00 0.00 64 1012.8
20260905213556 22 89 1.6 6.4 0.00 0.00 0.00 65 1012.8